#timestamp,LO_Frequency,Hit,StdDev 
1715594415.6,286046998.2,N
1715594435.5,286046998.6,N
1715594455.3,286046998.1,N
1715594475.2,286047000.8,N
1715594495.9,286047000.9,N
1715594515.7,286047000.1,N
1715594535.6,286047001.1,N
1715594555.4,286046999.8,N
1715594575.2,286046999.7,N
1715594595.1,286046999.8,N
1715594596.0,286046999.8,N
1715594615.8,286047000.1,N
1715594635.7,286047001.3,N
1715594655.5,286047000.0,N
1715594675.3,286046999.9,N
1715594695.2,286046999.9,N
1715594715.0,286047000.6,N
1715594715.9,286047000.6,N
1715594735.8,286047000.5,N
1715594755.6,286047000.0,N
1715594775.4,286047000.9,N
1715594795.3,286047000.3,N
1715594815.1,286046999.0,N
1715594835.9,286046999.2,N
1715594855.7,286046998.4,N
1715594875.5,286046999.1,N
1715594895.4,286046998.8,N
1715594915.2,286046999.2,N
1715594935.0,286046998.4,N
1715594935.9,286046998.4,N
1715594955.8,286046999.2,N
1715594975.6,286046996.8,Y
1715594995.5,286046999.1,P
1715595015.3,286046999.0,P
1715595035.1,286046998.7,P
1715595055.9,286046998.3,Y
1715595075.7,286047001.2,P
1715595095.6,286046999.0,N
1715595115.4,286046998.1,N
1715595135.2,286047001.2,N
1715595155.1,286047000.9,N
1715595156.0,286047000.9,N
1715595175.8,286046998.7,N
1715595195.7,286046998.9,N
1715595215.5,286046999.0,N
1715595235.3,286046999.3,N
1715595255.2,286046999.5,N
1715595275.0,286046996.9,Y
1715595275.9,286046996.9,P
1715595295.8,286046997.7,N
1715595315.6,286046997.5,N
1715595335.4,286046996.5,Y
1715595355.3,286047000.3,P
1715595375.1,286047001.0,N
1715595395.9,286046998.1,N
1715595415.7,286047000.6,N
1715595435.5,286047000.0,N
1715595455.4,286047000.7,N
1715595475.2,286046998.7,N
1715595495.0,286047001.0,N
1715595495.9,286047001.0,N
1715595515.8,286046999.9,N
1715595535.6,286047002.5,N
1715595555.5,286047001.7,N
1715595575.3,286047002.7,N
1715595595.1,286047001.6,N
1715595615.9,286046999.7,N
1715595635.7,286047002.8,N
1715595655.5,286047000.3,N
1715595675.4,286047000.6,N
1715595695.2,286047000.1,N
1715595715.1,286047002.2,N
1715595716.0,286047002.2,N
1715595735.8,286047002.5,N
1715595755.6,286046999.9,N
1715595775.5,286047000.3,N
1715595795.3,286047000.2,N
1715595815.2,286047002.8,N
1715595835.9,286047002.8,N
1715595855.7,286047002.4,N
1715595875.6,286047000.1,N
1715595895.4,286046999.9,N
1715595915.2,286047002.1,N
1715595935.1,286047001.6,N
1715595936.0,286047001.6,N
1715595955.8,286047002.4,N
1715595975.7,286047001.5,N
1715595995.5,286047001.9,N
1715596015.3,286047000.1,N
1715596035.2,286047002.6,N
1715596055.0,286047000.3,N
1715596055.9,286047000.3,N
1715596075.8,286046998.3,N
1715596095.6,286046998.6,N
1715596115.4,286046998.3,N
1715596135.3,286046999.6,N
1715596155.1,286046997.2,N
1715596175.9,286046995.4,Y
1715596195.7,286046995.4,P
1715596215.5,286046997.5,N
1715596235.4,286046998.0,N
1715596255.2,286046995.8,N
1715596275.1,286046995.1,N
1715596276.0,286046995.1,N
1715596295.8,286046995.5,N
1715596315.6,286046995.9,N
1715596335.5,286046995.2,N
1715596355.3,286046995.2,N
1715596375.1,286046995.6,N
1715596395.9,286046997.8,N
1715596415.7,286046999.1,N
1715596435.6,286046999.2,N
1715596455.4,286046999.5,N
1715596475.2,286046998.9,N
1715596495.1,286046998.1,N
1715596496.0,286046998.1,N
1715596515.8,286046998.5,N
1715596535.7,286046998.2,N
1715596555.5,286047000.6,N
1715596575.3,286046999.8,N
1715596595.2,286047002.7,N
1715596615.0,286047002.2,N
1715596615.9,286047002.2,N
1715596635.8,286047002.2,N
1715596655.6,286047001.8,N
1715596675.4,286047001.5,N
1715596695.3,286047001.8,N
1715596715.1,286047002.1,N
1715596735.9,286047001.9,N
1715596755.7,286047002.1,N
1715596775.5,286047001.7,N
1715596795.4,286047004.4,N
1715596815.2,286047002.0,N
1715596835.0,286047002.2,N
1715596836.0,286047002.2,N
1715596855.8,286047004.0,N
1715596875.6,286047004.3,N
1715596895.5,286047006.0,N
1715596915.3,286047005.6,N
1715596935.1,286047005.8,N
1715596955.9,286047005.7,N
1715596975.7,286047004.7,N
1715596995.6,286047007.6,Y
1715597015.4,286047002.9,P
1715597035.2,286047005.5,P
1715597055.1,286047003.0,N
1715597056.0,286047003.0,N
1715597075.8,286047003.1,N
1715597095.7,286047003.6,Y
1715597115.5,286047000.4,P
1715597135.3,286047000.2,N
1715597155.2,286047000.2,N
1715597175.0,286047000.4,N
1715597175.9,286047000.4,N
1715597195.7,286047000.6,N
1715597215.6,286047000.9,N
1715597235.4,286047001.1,N
1715597255.3,286047000.9,N
1715597275.1,286047000.4,N
1715597295.8,286046999.9,N
1715597315.7,286046999.9,N
1715597335.5,286047000.1,N
1715597355.4,286047002.8,Y
1715597375.2,286047002.7,P
1715597395.0,286047002.2,N
1715597395.9,286047002.2,N
1715597415.8,286047002.1,N
1715597435.6,286046999.7,N
1715597455.5,286047001.9,N
1715597475.3,286046999.9,N
1715597495.1,286047002.6,N
1715597515.9,286047002.6,N
1715597535.7,286047002.2,N
1715597555.5,286047002.7,N
1715597575.4,286046999.9,N
1715597595.2,286047002.2,N
1715597615.1,286047002.0,N
1715597616.0,286047002.0,N
1715597635.8,286047001.4,N
1715597655.6,286047001.6,N
1715597675.5,286047004.0,Y
1715597695.3,286047002.8,P
1715597715.2,286047002.8,P
1715597735.9,286047000.5,N
1715597755.7,286047000.5,N
1715597775.6,286046998.2,N
1715597795.4,286047001.2,N
1715597815.2,286047001.2,N
1715597835.1,286047000.9,N
1715597836.0,286047000.9,N
1715597855.8,286047000.1,N
1715597875.7,286046999.7,N
1715597895.5,286046999.9,N
1715597915.3,286047002.1,N
1715597935.2,286047002.6,N
1715597955.0,286047002.1,N
1715597955.9,286047002.1,N
1715597975.8,286047002.6,N
1715597995.6,286046999.8,N
